| time (UTC) | temp F | wind direction | speed knots | gust knots | rain 1hr in | rain 24hr in | rain mn in | humidity % | barometer mb |
| 20260906101933 | 65 | 173 | 0.0 | 0.0 | 0.00 | 0.00 | 0.00 | 99 | 1016.2 |
| 20260906101428 | 65 | 180 | 0.0 | 0.0 | 0.00 | 0.00 | 0.00 | 99 | 1016.2 |
| 20260906100923 | 65 | 185 | 0.0 | 0.0 | 0.00 | 0.00 | 0.00 | 99 | 1016.0 |
| 20260906100418 | 65 | 187 | 0.0 | 0.0 | 0.00 | 0.00 | 0.00 | 99 | 1016.0 |
| 20260906095912 | 65 | 188 | 0.0 | 0.0 | 0.00 | 0.00 | 0.00 | 99 | 1015.9 |
| 20260906095408 | 65 | 187 | 0.0 | 0.0 | 0.00 | 0.00 | 0.00 | 99 | 1015.9 |
| 20260906094902 | 65 | 188 | 0.0 | 0.0 | 0.00 | 0.00 | 0.00 | 99 | 1015.9 |
| 20260906094356 | 65 | 177 | 0.0 | 0.0 | 0.00 | 0.00 | 0.00 | 99 | 1016.0 |
| 20260906093853 | 65 | 179 | 0.0 | 0.0 | 0.00 | 0.00 | 0.00 | 99 | 1015.9 |
| 20260906093348 | 64 | 177 | 0.0 | 0.0 | 0.00 | 0.00 | 0.00 | 99 | 1015.9 |
| 20260906092843 | 64 | 177 | 0.0 | 0.0 | 0.00 | 0.00 | 0.00 | 99 | 1016.1 |
| 20260906092337 | 64 | 196 | 0.0 | 0.0 | 0.00 | 0.00 | 0.00 | 99 | 1015.8 |
| 20260906091833 | 64 | 196 | 0.0 | 0.0 | 0.00 | 0.00 | 0.00 | 99 | 1015.8 |
| 20260906091329 | 63 | 197 | 0.0 | 0.0 | 0.00 | 0.00 | 0.00 | 99 | 1015.8 |
| 20260906090826 | 63 | 198 | 0.0 | 0.0 | 0.00 | 0.00 | 0.00 | 99 | 1015.8 |
| 20260906090325 | 63 | 198 | 0.0 | 0.0 | 0.00 | 0.00 | 0.00 | 99 | 1015.7 |
| 20260906085824 | 63 | 183 | 0.0 | 0.0 | 0.00 | 0.00 | 0.00 | 99 | 1015.9 |
| 20260906085318 | 63 | 183 | 0.0 | 0.0 | 0.00 | 0.00 | 0.00 | 99 | 1015.6 |
| 20260906084813 | 63 | 181 | 0.0 | 0.0 | 0.00 | 0.00 | 0.00 | 99 | 1016.1 |
| 20260906084312 | 63 | 181 | 0.0 | 0.0 | 0.00 | 0.00 | 0.00 | 99 | 1015.6 |
| 20260906083807 | 64 | 196 | 0.0 | 0.0 | 0.00 | 0.00 | 0.00 | 99 | 1015.7 |
| 20260906083303 | 64 | 197 | 0.0 | 0.0 | 0.00 | 0.00 | 0.00 | 99 | 1015.7 |
| 20260906082757 | 64 | 196 | 0.0 | 0.0 | 0.00 | 0.00 | 0.00 | 99 | 1015.5 |
| 20260906082252 | 64 | 197 | 0.0 | 0.0 | 0.00 | 0.00 | 0.00 | 99 | 1015.8 |
| 20260906081748 | 63 | 198 | 0.0 | 0.0 | 0.00 | 0.00 | 0.00 | 99 | 1015.6 |
| 20260906081243 | 64 | 188 | 0.0 | 0.0 | 0.00 | 0.00 | 0.00 | 99 | 1015.4 |
| 20260906080739 | 64 | 190 | 0.0 | 0.0 | 0.00 | 0.00 | 0.00 | 99 | 1015.4 |
| 20260906080236 | 64 | 180 | 0.0 | 0.0 | 0.00 | 0.00 | 0.00 | 99 | 1015.6 |
| 20260906075729 | 64 | 182 | 0.0 | 0.0 | 0.00 | 0.00 | 0.00 | 99 | 1015.5 |
| 20260906075224 | 64 | 182 | 0.0 | 0.0 | 0.00 | 0.00 | 0.00 | 99 | 1015.4 |
| 20260906074719 | 64 | 182 | 0.0 | 0.0 | 0.00 | 0.00 | 0.00 | 99 | 1015.4 |
| 20260906074219 | 64 | 180 | 0.0 | 0.0 | 0.00 | 0.00 | 0.00 | 99 | 1015.4 |
| 20260906073713 | 64 | 180 | 0.0 | 0.0 | 0.00 | 0.00 | 0.00 | 99 | 1015.6 |
| 20260906073208 | 64 | 179 | 0.0 | 0.0 | 0.00 | 0.00 | 0.00 | 99 | 1015.5 |
| 20260906072704 | 64 | 190 | 0.0 | 0.0 | 0.00 | 0.00 | 0.00 | 99 | 1015.6 |
| 20260906072159 | 64 | 178 | 0.0 | 0.0 | 0.00 | 0.00 | 0.00 | 99 | 1015.6 |
| 20260906071656 | 65 | 177 | 0.0 | 0.0 | 0.00 | 0.00 | 0.00 | 99 | 1015.6 |
| 20260906071155 | 65 | 177 | 0.0 | 0.0 | 0.00 | 0.00 | 0.00 | 99 | 1015.5 |
| 20260906070652 | 65 | 177 | 0.0 | 0.0 | 0.00 | 0.00 | 0.00 | 99 | 1015.7 |
| 20260906070147 | 65 | 185 | 0.0 | 0.0 | 0.00 | 0.00 | 0.00 | 99 | 1015.7 |
| 20260906065647 | 65 | 185 | 0.0 | 0.0 | 0.00 | 0.00 | 0.00 | 99 | 1015.7 |
| 20260906065142 | 65 | 186 | 0.0 | 0.0 | 0.00 | 0.00 | 0.00 | 99 | 1015.9 |
| 20260906064637 | 65 | 169 | 0.0 | 0.0 | 0.00 | 0.00 | 0.00 | 99 | 1015.9 |
| 20260906064132 | 65 | 177 | 0.0 | 0.0 | 0.00 | 0.00 | 0.00 | 99 | 1016.1 |
| 20260906063627 | 65 | 177 | 0.0 | 0.0 | 0.00 | 0.00 | 0.00 | 99 | 1016.1 |
| 20260906063118 | 65 | 198 | 0.0 | 0.0 | 0.00 | 0.00 | 0.00 | 99 | 1016.1 |
| 20260906062614 | 65 | 196 | 0.0 | 0.0 | 0.00 | 0.00 | 0.00 | 99 | 1016.3 |
| 20260906062112 | 64 | 196 | 0.0 | 0.0 | 0.00 | 0.00 | 0.00 | 99 | 1015.9 |
| 20260906061609 | 65 | 187 | 0.0 | 0.0 | 0.00 | 0.00 | 0.00 | 99 | 1016.1 |
| 20260906061108 | 64 | 186 | 0.0 | 0.0 | 0.00 | 0.00 | 0.00 | 99 | 1016.1 |
| 20260906060605 | 64 | 191 | 0.0 | 0.0 | 0.00 | 0.00 | 0.00 | 99 | 1016.2 |
| 20260906055557 | 65 | 180 | 0.0 | 0.0 | 0.00 | 0.00 | 0.00 | 99 | 1016.1 |
| 20260906055053 | 65 | 183 | 0.0 | 0.0 | 0.00 | 0.00 | 0.00 | 99 | 1015.9 |
| 20260906054553 | 65 | 183 | 0.0 | 0.0 | 0.00 | 0.00 | 0.00 | 99 | 1015.9 |
| 20260906054048 | 65 | 183 | 0.0 | 0.0 | 0.00 | 0.00 | 0.00 | 99 | 1015.9 |
| 20260906053544 | 65 | 191 | 0.0 | 0.0 | 0.00 | 0.00 | 0.00 | 99 | 1016.2 |
| 20260906053039 | 65 | 191 | 0.0 | 0.0 | 0.00 | 0.00 | 0.00 | 99 | 1016.1 |
| 20260906052535 | 65 | 170 | 0.0 | 0.0 | 0.00 | 0.00 | 0.00 | 99 | 1016.0 |
| 20260906052032 | 65 | 196 | 0.0 | 0.0 | 0.00 | 0.00 | 0.00 | 99 | 1016.0 |
| 20260906051527 | 65 | 198 | 0.0 | 0.0 | 0.00 | 0.00 | 0.00 | 99 | 1015.7 |
| 20260906051023 | 65 | 181 | 0.0 | 0.0 | 0.00 | 0.00 | 0.00 | 99 | 1015.9 |
| 20260906050518 | 65 | 194 | 0.0 | 0.0 | 0.00 | 0.00 | 0.00 | 99 | 1015.8 |
| 20260906050012 | 65 | 188 | 0.0 | 0.0 | 0.00 | 0.00 | 0.00 | 99 | 1015.6 |
| 20260906045511 | 65 | 193 | 0.0 | 0.0 | 0.00 | 0.00 | 0.00 | 99 | 1015.8 |
| 20260906045007 | 66 | 189 | 0.0 | 0.0 | 0.00 | 0.00 | 0.00 | 99 | 1015.9 |
| 20260906044502 | 66 | 189 | 0.0 | 0.0 | 0.00 | 0.00 | 0.00 | 99 | 1015.9 |
| 20260906043957 | 66 | 183 | 0.0 | 0.0 | 0.00 | 0.00 | 0.00 | 99 | 1016.1 |
| 20260906043453 | 66 | 186 | 0.0 | 0.0 | 0.00 | 0.00 | 0.00 | 99 | 1016.0 |
| 20260906042949 | 66 | 181 | 0.0 | 0.0 | 0.00 | 0.00 | 0.00 | 99 | 1016.1 |
| 20260906042448 | 66 | 178 | 0.0 | 0.0 | 0.00 | 0.00 | 0.00 | 99 | 1016.0 |
| 20260906041947 | 66 | 193 | 0.0 | 0.0 | 0.00 | 0.00 | 0.00 | 99 | 1016.1 |
| 20260906041444 | 66 | 185 | 0.0 | 0.0 | 0.00 | 0.00 | 0.00 | 99 | 1016.2 |
| 20260906040943 | 66 | 185 | 0.0 | 0.0 | 0.00 | 0.00 | 0.00 | 99 | 1016.2 |
| 20260906040438 | 67 | 192 | 0.0 | 0.0 | 0.00 | 0.00 | 0.00 | 99 | 1016.1 |
| 20260906035933 | 67 | 193 | 0.0 | 0.0 | 0.00 | 0.00 | 0.00 | 99 | 1016.3 |
| 20260906035429 | 67 | 193 | 0.0 | 0.0 | 0.00 | 0.00 | 0.00 | 98 | 1016.2 |
| 20260906034924 | 67 | 185 | 0.0 | 0.0 | 0.00 | 0.00 | 0.00 | 98 | 1016.4 |
| 20260906034419 | 67 | 181 | 0.0 | 0.0 | 0.00 | 0.00 | 0.00 | 99 | 1016.0 |
| 20260906033914 | 67 | 204 | 0.0 | 0.0 | 0.00 | 0.00 | 0.00 | 98 | 1016.2 |
| 20260906033409 | 67 | 205 | 0.0 | 0.0 | 0.00 | 0.00 | 0.00 | 98 | 1016.1 |
| 20260906032905 | 67 | 210 | 0.0 | 0.0 | 0.00 | 0.00 | 0.00 | 98 | 1016.4 |
| 20260906032401 | 67 | 187 | 0.0 | 0.0 | 0.00 | 0.00 | 0.00 | 98 | 1016.3 |
| 20260906031855 | 67 | 180 | 0.0 | 0.0 | 0.00 | 0.00 | 0.00 | 98 | 1016.3 |
| 20260906031350 | 67 | 181 | 0.0 | 0.0 | 0.00 | 0.00 | 0.00 | 98 | 1016.5 |
| 20260906030845 | 67 | 182 | 0.0 | 0.0 | 0.00 | 0.00 | 0.00 | 98 | 1016.4 |
| 20260906030340 | 67 | 188 | 0.0 | 0.0 | 0.00 | 0.00 | 0.00 | 97 | 1016.2 |
| 20260906025835 | 67 | 190 | 0.0 | 0.0 | 0.00 | 0.00 | 0.00 | 97 | 1016.3 |
| 20260906025329 | 68 | 190 | 0.0 | 0.0 | 0.00 | 0.00 | 0.00 | 97 | 1016.7 |
| 20260906024828 | 68 | 179 | 0.0 | 0.0 | 0.00 | 0.00 | 0.00 | 97 | 1016.4 |
| 20260906024327 | 68 | 179 | 0.0 | 0.0 | 0.00 | 0.00 | 0.00 | 97 | 1016.3 |
| 20260906023823 | 68 | 179 | 0.0 | 0.0 | 0.00 | 0.00 | 0.00 | 97 | 1016.5 |
| 20260906023319 | 68 | 179 | 0.0 | 0.0 | 0.00 | 0.00 | 0.00 | 98 | 1016.4 |
| 20260906022814 | 68 | 179 | 0.0 | 0.0 | 0.00 | 0.00 | 0.00 | 97 | 1016.7 |
| 20260906022309 | 68 | 205 | 0.0 | 0.0 | 0.00 | 0.00 | 0.00 | 97 | 1016.5 |
| 20260906021804 | 68 | 205 | 0.0 | 0.0 | 0.00 | 0.00 | 0.00 | 97 | 1016.7 |
| 20260906021258 | 69 | 205 | 0.0 | 0.0 | 0.00 | 0.00 | 0.00 | 96 | 1016.7 |
| 20260906020752 | 69 | 205 | 0.0 | 0.0 | 0.00 | 0.00 | 0.00 | 95 | 1016.5 |
| 20260906020247 | 69 | 205 | 0.0 | 0.0 | 0.00 | 0.00 | 0.00 | 94 | 1016.4 |
| 20260906015741 | 69 | 204 | 0.0 | 0.0 | 0.00 | 0.00 | 0.00 | 93 | 1016.3 |
| 20260906015239 | 70 | 204 | 0.0 | 0.0 | 0.00 | 0.00 | 0.00 | 93 | 1016.5 |
| 20260906014734 | 70 | 205 | 0.0 | 0.0 | 0.00 | 0.00 | 0.00 | 92 | 1016.3 |
| 20260906014230 | 70 | 206 | 0.0 | 0.0 | 0.00 | 0.00 | 0.00 | 91 | 1016.1 |
| 20260906013726 | 70 | 206 | 0.0 | 0.0 | 0.00 | 0.00 | 0.00 | 91 | 1016.0 |
| 20260906013226 | 70 | 206 | 0.0 | 0.0 | 0.00 | 0.00 | 0.00 | 91 | 1016.3 |
| 20260906012721 | 70 | 206 | 0.0 | 0.0 | 0.00 | 0.00 | 0.00 | 91 | 1015.9 |
| 20260906012216 | 70 | 206 | 0.0 | 0.0 | 0.00 | 0.00 | 0.00 | 91 | 1016.1 |
| 20260906011711 | 71 | 206 | 0.0 | 0.0 | 0.00 | 0.00 | 0.00 | 91 | 1015.9 |
| 20260906011206 | 71 | 206 | 0.0 | 0.0 | 0.00 | 0.00 | 0.00 | 90 | 1016.0 |
| 20260906010702 | 71 | 206 | 0.0 | 0.0 | 0.00 | 0.00 | 0.00 | 89 | 1016.0 |
| 20260906010158 | 71 | 206 | 0.0 | 0.0 | 0.00 | 0.00 | 0.00 | 89 | 1015.7 |
| 20260906005657 | 72 | 206 | 0.0 | 0.0 | 0.00 | 0.00 | 0.00 | 88 | 1015.7 |
| 20260906005157 | 72 | 206 | 0.0 | 0.0 | 0.00 | 0.00 | 0.00 | 87 | 1015.9 |
| 20260906004655 | 72 | 206 | 0.0 | 0.0 | 0.00 | 0.00 | 0.00 | 87 | 1015.6 |
| 20260906004151 | 73 | 206 | 0.0 | 0.0 | 0.00 | 0.00 | 0.00 | 85 | 1015.7 |
| 20260906003646 | 73 | 206 | 0.0 | 0.0 | 0.00 | 0.00 | 0.00 | 83 | 1015.6 |
| 20260906003142 | 73 | 206 | 0.0 | 0.0 | 0.00 | 0.00 | 0.00 | 83 | 1015.8 |
| 20260906002636 | 74 | 206 | 0.0 | 0.0 | 0.00 | 0.00 | 0.00 | 82 | 1015.7 |
| 20260906002131 | 74 | 210 | 0.9 | 0.9 | 0.00 | 0.00 | 0.00 | 81 | 1015.7 |
| 20260906001626 | 75 | 188 | 0.0 | 0.0 | 0.00 | 0.00 | 0.00 | 80 | 1015.5 |
| 20260906001126 | 76 | 194 | 0.9 | 0.9 | 0.00 | 0.00 | 0.00 | 78 | 1015.5 |
| 20260906000622 | 77 | 204 | 0.0 | 0.9 | 0.00 | 0.00 | 0.00 | 75 | 1015.4 |
| 20260906000117 | 76 | 215 | 0.9 | 0.9 | 0.00 | 0.00 | 0.00 | 76 | 1015.4 |
| 20260905235616 | 77 | 231 | 0.9 | 0.9 | 0.00 | 0.00 | 0.00 | 75 | 1015.3 |
| 20260905235111 | 77 | 260 | 1.7 | 1.7 | 0.00 | 0.00 | 0.00 | 74 | 1015.4 |
| 20260905234607 | 76 | 205 | 0.9 | 0.9 | 0.00 | 0.00 | 0.00 | 75 | 1015.2 |
| 20260905234102 | 75 | 199 | 1.7 | 1.7 | 0.00 | 0.00 | 0.00 | 77 | 1015.2 |
| 20260905233601 | 77 | 196 | 0.9 | 0.9 | 0.00 | 0.00 | 0.00 | 76 | 1014.9 |
| 20260905233056 | 76 | 210 | 0.9 | 1.7 | 0.00 | 0.00 | 0.00 | 76 | 1015.2 |
| 20260905232551 | 77 | 203 | 0.0 | 0.0 | 0.00 | 0.00 | 0.00 | 76 | 1015.3 |
| 20260905232047 | 78 | 203 | 0.0 | 0.0 | 0.00 | 0.00 | 0.00 | 76 | 1015.3 |
| 20260905231542 | 79 | 202 | 0.0 | 0.0 | 0.00 | 0.00 | 0.00 | 73 | 1015.4 |
| 20260905231038 | 79 | 202 | 0.0 | 0.9 | 0.00 | 0.00 | 0.00 | 68 | 1015.4 |
| 20260905230537 | 79 | 203 | 2.6 | 4.3 | 0.00 | 0.00 | 0.00 | 67 | 1015.4 |
| 20260905230036 | 80 | 206 | 0.9 | 0.9 | 0.00 | 0.00 | 0.00 | 66 | 1015.2 |
| 20260905225525 | 80 | 203 | 0.9 | 0.9 | 0.00 | 0.00 | 0.00 | 67 | 1015.3 |
| 20260905225020 | 81 | 214 | 0.9 | 0.9 | 0.00 | 0.00 | 0.00 | 65 | 1015.4 |
| 20260905224515 | 81 | 192 | 0.9 | 1.7 | 0.00 | 0.00 | 0.00 | 64 | 1015.4 |
| 20260905224015 | 82 | 215 | 0.9 | 0.9 | 0.00 | 0.00 | 0.00 | 66 | 1015.3 |
| 20260905223512 | 82 | 345 | 0.0 | 0.9 | 0.00 | 0.00 | 0.00 | 64 | 1015.2 |
| 20260905223007 | 83 | 196 | 0.9 | 0.9 | 0.00 | 0.00 | 0.00 | 63 | 1015.4 |
| 20260905222502 | 83 | 199 | 0.9 | 0.9 | 0.00 | 0.00 | 0.00 | 66 | 1015.3 |
| 20260905221957 | 83 | 205 | 0.9 | 1.7 | 0.00 | 0.00 | 0.00 | 64 | 1015.3 |
| 20260905221454 | 83 | 253 | 2.6 | 5.2 | 0.00 | 0.00 | 0.00 | 59 | 1015.3 |
| 20260905220950 | 83 | 253 | 0.9 | 1.7 | 0.00 | 0.00 | 0.00 | 61 | 1015.1 |
| 20260905220446 | 83 | 280 | 2.6 | 2.6 | 0.00 | 0.00 | 0.00 | 61 | 1015.1 |
| 20260905215944 | 83 | 221 | 0.9 | 0.9 | 0.00 | 0.00 | 0.00 | 64 | 1015.1 |
| 20260905215440 | 83 | 162 | 0.0 | 0.0 | 0.00 | 0.00 | 0.00 | 64 | 1015.2 |
| 20260905214936 | 83 | 210 | 0.0 | 0.9 | 0.00 | 0.00 | 0.00 | 68 | 1014.7 |
| 20260905214431 | 82 | 221 | 1.7 | 1.7 | 0.00 | 0.00 | 0.00 | 66 | 1014.7 |
| 20260905213926 | 83 | 176 | 1.7 | 1.7 | 0.00 | 0.00 | 0.00 | 66 | 1014.5 |
| 20260905213422 | 83 | 199 | 0.0 | 0.9 | 0.00 | 0.00 | 0.00 | 66 | 1014.9 |
| 20260905212917 | 83 | 249 | 0.0 | 0.0 | 0.00 | 0.00 | 0.00 | 65 | 1014.7 |
| 20260905212412 | 83 | 251 | 2.6 | 2.6 | 0.00 | 0.00 | 0.00 | 65 | 1014.9 |
| 20260905211911 | 83 | 198 | 0.0 | 0.0 | 0.00 | 0.00 | 0.00 | 66 | 1014.7 |
| 20260905211407 | 82 | 229 | 0.0 | 0.9 | 0.00 | 0.00 | 0.00 | 66 | 1014.7 |
| 20260905210902 | 83 | 244 | 1.7 | 1.7 | 0.00 | 0.00 | 0.00 | 65 | 1014.7 |
| 20260905210357 | 83 | 199 | 0.0 | 0.0 | 0.00 | 0.00 | 0.00 | 69 | 1014.5 |
| 20260905205856 | 83 | 91 | 0.9 | 1.7 | 0.00 | 0.00 | 0.00 | 68 | 1014.9 |
| 20260905205351 | 83 | 5 | 0.9 | 2.6 | 0.00 | 0.00 | 0.00 | 67 | 1014.4 |
| 20260905204850 | 82 | 260 | 0.9 | 0.9 | 0.00 | 0.00 | 0.00 | 68 | 1014.7 |
| 20260905204347 | 82 | 229 | 0.9 | 1.7 | 0.00 | 0.00 | 0.00 | 68 | 1014.7 |
| 20260905203845 | 82 | 326 | 0.9 | 1.7 | 0.00 | 0.00 | 0.00 | 68 | 1014.7 |
| 20260905203341 | 83 | 225 | 1.7 | 1.7 | 0.00 | 0.00 | 0.00 | 66 | 1014.7 |
| 20260905202837 | 83 | 272 | 0.9 | 0.9 | 0.00 | 0.00 | 0.00 | 66 | 1014.6 |
| 20260905202331 | 82 | 224 | 1.7 | 2.6 | 0.00 | 0.00 | 0.00 | 66 | 1014.9 |
| 20260905201827 | 82 | 217 | 1.7 | 1.7 | 0.00 | 0.00 | 0.00 | 66 | 1014.6 |
| 20260905201322 | 82 | 239 | 1.7 | 1.7 | 0.00 | 0.00 | 0.00 | 66 | 1014.5 |
| 20260905200816 | 82 | 213 | 0.9 | 0.9 | 0.00 | 0.00 | 0.00 | 67 | 1014.5 |
| 20260905200313 | 82 | 242 | 1.7 | 1.7 | 0.00 | 0.00 | 0.00 | 66 | 1014.9 |
| 20260905195810 | 82 | 194 | 0.0 | 0.0 | 0.00 | 0.00 | 0.00 | 66 | 1014.7 |
| 20260905195307 | 82 | 257 | 0.9 | 0.9 | 0.00 | 0.00 | 0.00 | 68 | 1014.9 |
| 20260905194802 | 82 | 238 | 0.9 | 1.7 | 0.00 | 0.00 | 0.00 | 67 | 1014.5 |
| 20260905194300 | 82 | 276 | 0.9 | 1.7 | 0.00 | 0.00 | 0.00 | 66 | 1014.9 |
| 20260905193754 | 82 | 266 | 2.6 | 2.6 | 0.00 | 0.00 | 0.00 | 64 | 1014.7 |
| 20260905193249 | 82 | 191 | 0.9 | 1.7 | 0.00 | 0.00 | 0.00 | 67 | 1014.6 |
| 20260905192745 | 83 | 274 | 1.7 | 2.6 | 0.00 | 0.00 | 0.00 | 66 | 1015.1 |
| 20260905192241 | 83 | 291 | 1.7 | 1.7 | 0.00 | 0.00 | 0.00 | 66 | 1014.9 |
| 20260905191740 | 83 | 268 | 0.9 | 1.7 | 0.00 | 0.00 | 0.00 | 65 | 1015.1 |
| 20260905191239 | 82 | 236 | 0.0 | 0.0 | 0.00 | 0.00 | 0.00 | 67 | 1015.0 |
| 20260905190737 | 82 | 256 | 4.3 | 6.1 | 0.00 | 0.00 | 0.00 | 68 | 1015.3 |
| 20260905190237 | 83 | 205 | 0.9 | 0.9 | 0.00 | 0.00 | 0.00 | 68 | 1015.2 |
| 20260905185736 | 83 | 212 | 0.9 | 1.7 | 0.00 | 0.00 | 0.00 | 69 | 1015.5 |
| 20260905185230 | 82 | 196 | 0.0 | 0.9 | 0.00 | 0.00 | 0.00 | 70 | 1015.5 |
| 20260905184724 | 82 | 35 | 1.7 | 2.6 | 0.00 | 0.00 | 0.00 | 72 | 1015.2 |
| 20260905184224 | 82 | 179 | 0.0 | 0.0 | 0.00 | 0.00 | 0.00 | 72 | 1015.6 |
| 20260905183718 | 81 | 138 | 0.9 | 0.9 | 0.00 | 0.00 | 0.00 | 76 | 1015.8 |
| 20260905183213 | 80 | 199 | 0.9 | 1.7 | 0.00 | 0.00 | 0.00 | 78 | 1015.9 |
| 20260905182707 | 79 | 226 | 0.9 | 0.9 | 0.00 | 0.00 | 0.00 | 78 | 1016.1 |
| 20260905182206 | 79 | 230 | 2.6 | 2.6 | 0.00 | 0.00 | 0.00 | 78 | 1016.2 |
| 20260905181701 | 79 | 232 | 0.9 | 1.7 | 0.00 | 0.00 | 0.00 | 79 | 1016.3 |
| 20260905181155 | 79 | 234 | 2.6 | 2.6 | 0.00 | 0.00 | 0.00 | 79 | 1016.1 |
| 20260905180650 | 79 | 275 | 2.6 | 4.3 | 0.00 | 0.00 | 0.00 | 78 | 1016.1 |
| 20260905180145 | 79 | 244 | 2.6 | 4.3 | 0.00 | 0.00 | 0.00 | 78 | 1016.3 |
| 20260905175644 | 79 | 202 | 0.9 | 0.9 | 0.00 | 0.00 | 0.00 | 77 | 1016.3 |
| 20260905175140 | 79 | 188 | 1.7 | 2.6 | 0.00 | 0.00 | 0.00 | 78 | 1016.3 |
| 20260905174636 | 80 | 236 | 1.7 | 1.7 | 0.00 | 0.00 | 0.00 | 78 | 1016.5 |
| 20260905174131 | 79 | 260 | 0.9 | 1.7 | 0.00 | 0.00 | 0.00 | 78 | 1016.5 |
| 20260905173627 | 78 | 212 | 0.9 | 0.9 | 0.00 | 0.00 | 0.00 | 79 | 1016.7 |
| 20260905173122 | 79 | 209 | 0.9 | 1.7 | 0.00 | 0.00 | 0.00 | 79 | 1016.2 |
| 20260905172621 | 78 | 192 | 0.9 | 1.7 | 0.00 | 0.00 | 0.00 | 79 | 1016.4 |
| 20260905172115 | 79 | 218 | 3.5 | 4.3 | 0.00 | 0.00 | 0.00 | 78 | 1016.5 |
| 20260905171607 | 79 | 244 | 0.9 | 1.7 | 0.00 | 0.00 | 0.00 | 78 | 1016.2 |
| 20260905171102 | 78 | 192 | 0.0 | 0.0 | 0.00 | 0.00 | 0.00 | 80 | 1016.5 |
| 20260905170559 | 78 | 198 | 0.0 | 0.9 | 0.00 | 0.00 | 0.00 | 80 | 1016.9 |
| 20260905170053 | 78 | 205 | 0.0 | 0.0 | 0.00 | 0.00 | 0.00 | 79 | 1017.1 |
| 20260905165549 | 78 | 198 | 0.9 | 0.9 | 0.00 | 0.00 | 0.00 | 79 | 1017.2 |
| 20260905165043 | 78 | 224 | 0.9 | 0.9 | 0.00 | 0.00 | 0.00 | 79 | 1017.1 |
| 20260905164538 | 77 | 252 | 2.6 | 2.6 | 0.00 | 0.00 | 0.00 | 78 | 1017.4 |
| 20260905164032 | 77 | 248 | 0.9 | 0.9 | 0.00 | 0.00 | 0.00 | 78 | 1017.5 |
| 20260905163529 | 78 | 216 | 1.7 | 1.7 | 0.00 | 0.00 | 0.00 | 78 | 1017.3 |
| 20260905163024 | 78 | 216 | 1.7 | 1.7 | 0.00 | 0.00 | 0.00 | 77 | 1017.4 |
| 20260905162520 | 79 | 251 | 0.9 | 1.7 | 0.00 | 0.00 | 0.00 | 76 | 1017.3 |
| 20260905162014 | 80 | 236 | 0.9 | 0.9 | 0.00 | 0.00 | 0.00 | 75 | 1017.3 |
| 20260905161509 | 81 | 262 | 2.6 | 2.6 | 0.00 | 0.00 | 0.00 | 72 | 1017.5 |
| 20260905161006 | 81 | 201 | 0.9 | 0.9 | 0.00 | 0.00 | 0.00 | 74 | 1017.2 |
| 20260905160459 | 81 | 214 | 0.0 | 0.9 | 0.00 | 0.00 | 0.00 | 74 | 1017.5 |
| 20260905155954 | 81 | 200 | 0.0 | 0.0 | 0.00 | 0.00 | 0.00 | 73 | 1017.6 |
| 20260905155448 | 80 | 191 | 0.9 | 0.9 | 0.00 | 0.00 | 0.00 | 73 | 1017.8 |
| 20260905154942 | 80 | 195 | 0.0 | 0.0 | 0.00 | 0.00 | 0.00 | 74 | 1017.9 |
| 20260905154437 | 79 | 199 | 1.7 | 1.7 | 0.00 | 0.00 | 0.00 | 77 | 1018.1 |
| 20260905153932 | 78 | 211 | 0.0 | 0.0 | 0.00 | 0.00 | 0.00 | 82 | 1017.8 |
| 20260905153429 | 78 | 224 | 0.9 | 0.9 | 0.00 | 0.00 | 0.00 | 81 | 1018.1 |
| 20260905152928 | 77 | 210 | 0.0 | 0.0 | 0.00 | 0.00 | 0.00 | 80 | 1017.9 |
| 20260905152428 | 77 | 183 | 0.0 | 0.9 | 0.00 | 0.00 | 0.00 | 81 | 1018.0 |
| 20260905151922 | 77 | 222 | 0.9 | 0.9 | 0.00 | 0.00 | 0.00 | 82 | 1018.2 |
| 20260905151418 | 77 | 207 | 0.9 | 0.9 | 0.00 | 0.00 | 0.00 | 82 | 1017.8 |
| 20260905150913 | 77 | 205 | 0.9 | 0.9 | 0.00 | 0.00 | 0.00 | 83 | 1018.4 |
| 20260905150412 | 78 | 204 | 2.6 | 4.3 | 0.00 | 0.00 | 0.00 | 83 | 1018.4 |
| 20260905145909 | 78 | 232 | 0.0 | 0.0 | 0.00 | 0.00 | 0.00 | 85 | 1018.1 |
| 20260905145410 | 79 | 205 | 0.0 | 0.0 | 0.00 | 0.00 | 0.00 | 83 | 1017.8 |
| 20260905144909 | 79 | 211 | 0.0 | 0.0 | 0.00 | 0.00 | 0.00 | 82 | 1017.5 |
| 20260905144405 | 80 | 199 | 0.0 | 0.0 | 0.00 | 0.00 | 0.00 | 83 | 1017.3 |
| 20260905143903 | 80 | 194 | 0.0 | 0.0 | 0.00 | 0.00 | 0.00 | 84 | 1017.5 |
| 20260905143357 | 79 | 189 | 0.0 | 0.0 | 0.00 | 0.00 | 0.00 | 83 | 1017.5 |
| 20260905142852 | 79 | 208 | 0.0 | 0.0 | 0.00 | 0.00 | 0.00 | 84 | 1017.4 |
| 20260905142350 | 79 | 184 | 0.0 | 0.0 | 0.00 | 0.00 | 0.00 | 82 | 1017.4 |
| 20260905141847 | 79 | 207 | 0.0 | 0.0 | 0.00 | 0.00 | 0.00 | 81 | 1017.6 |
| 20260905141341 | 79 | 174 | 0.0 | 0.0 | 0.00 | 0.00 | 0.00 | 80 | 1017.4 |
| 20260905140837 | 80 | 205 | 0.0 | 0.0 | 0.00 | 0.00 | 0.00 | 80 | 1017.5 |
| 20260905140332 | 81 | 198 | 0.0 | 0.0 | 0.00 | 0.00 | 0.00 | 79 | 1017.5 |
| 20260905135830 | 80 | 198 | 0.0 | 0.0 | 0.00 | 0.00 | 0.00 | 81 | 1017.6 |
| 20260905135326 | 79 | 196 | 0.0 | 0.0 | 0.00 | 0.00 | 0.00 | 81 | 1017.5 |
| 20260905134821 | 80 | 200 | 0.0 | 0.0 | 0.00 | 0.00 | 0.00 | 82 | 1017.6 |
| 20260905134315 | 78 | 189 | 0.0 | 0.0 | 0.00 | 0.00 | 0.00 | 83 | 1017.4 |
| 20260905133814 | 77 | 197 | 0.0 | 0.0 | 0.00 | 0.00 | 0.00 | 85 | 1017.6 |
| 20260905133310 | 76 | 199 | 0.0 | 0.0 | 0.00 | 0.00 | 0.00 | 87 | 1017.6 |
| 20260905132809 | 75 | 196 | 0.0 | 0.0 | 0.00 | 0.00 | 0.00 | 88 | 1017.5 |
| 20260905132306 | 75 | 196 | 0.0 | 0.0 | 0.00 | 0.00 | 0.00 | 90 | 1017.6 |
| 20260905131759 | 74 | 205 | 0.0 | 0.0 | 0.00 | 0.00 | 0.00 | 90 | 1017.4 |
| 20260905131254 | 75 | 196 | 0.0 | 0.0 | 0.00 | 0.00 | 0.00 | 89 | 1017.4 |
| 20260905130749 | 74 | 184 | 0.0 | 0.0 | 0.00 | 0.00 | 0.00 | 93 | 1017.5 |
| 20260905130248 | 72 | 187 | 0.0 | 0.0 | 0.00 | 0.00 | 0.00 | 94 | 1017.5 |
| 20260905125744 | 71 | 195 | 0.0 | 0.0 | 0.00 | 0.00 | 0.00 | 95 | 1017.5 |
| 20260905125238 | 71 | 202 | 0.0 | 0.0 | 0.00 | 0.00 | 0.00 | 95 | 1017.5 |
| 20260905124735 | 71 | 219 | 0.0 | 0.0 | 0.00 | 0.00 | 0.00 | 96 | 1017.5 |
| 20260905124231 | 71 | 207 | 0.0 | 0.0 | 0.00 | 0.00 | 0.00 | 97 | 1017.3 |
| 20260905123725 | 70 | 203 | 0.0 | 0.0 | 0.00 | 0.00 | 0.00 | 97 | 1017.4 |
| 20260905123223 | 70 | 201 | 0.0 | 0.0 | 0.00 | 0.00 | 0.00 | 98 | 1017.5 |
| 20260905122722 | 70 | 188 | 0.0 | 0.0 | 0.00 | 0.00 | 0.00 | 99 | 1017.5 |
| 20260905122217 | 70 | 188 | 0.0 | 0.0 | 0.00 | 0.00 | 0.00 | 99 | 1017.4 |
| 20260905121712 | 69 | 192 | 0.0 | 0.0 | 0.00 | 0.00 | 0.00 | 99 | 1017.6 |
| 20260905121209 | 69 | 189 | 0.0 | 0.0 | 0.00 | 0.00 | 0.00 | 99 | 1017.3 |
| 20260905120708 | 68 | 202 | 0.0 | 0.0 | 0.00 | 0.00 | 0.00 | 99 | 1017.6 |
| 20260905120202 | 68 | 196 | 0.0 | 0.0 | 0.00 | 0.00 | 0.00 | 99 | 1017.3 |
| 20260905115701 | 67 | 191 | 0.0 | 0.0 | 0.00 | 0.00 | 0.00 | 99 | 1017.3 |
| 20260905115156 | 67 | 182 | 0.0 | 0.0 | 0.00 | 0.00 | 0.00 | 99 | 1017.4 |
| 20260905114656 | 67 | 197 | 0.0 | 0.0 | 0.00 | 0.00 | 0.00 | 99 | 1017.4 |
| 20260905114154 | 66 | 190 | 0.0 | 0.0 | 0.00 | 0.00 | 0.00 | 99 | 1017.3 |
| 20260905113649 | 66 | 194 | 0.0 | 0.0 | 0.00 | 0.00 | 0.00 | 99 | 1017.1 |
| 20260905113145 | 66 | 199 | 0.0 | 0.0 | 0.00 | 0.00 | 0.00 | 99 | 1017.3 |
| 20260905112644 | 66 | 196 | 0.0 | 0.0 | 0.00 | 0.00 | 0.00 | 99 | 1017.1 |
| 20260905112141 | 66 | 194 | 0.0 | 0.0 | 0.00 | 0.00 | 0.00 | 99 | 1017.3 |
| 20260905111640 | 66 | 190 | 0.0 | 0.0 | 0.00 | 0.00 | 0.00 | 99 | 1017.1 |
| 20260905111139 | 66 | 209 | 0.0 | 0.0 | 0.00 | 0.00 | 0.00 | 99 | 1017.3 |
| 20260905110638 | 66 | 192 | 0.0 | 0.0 | 0.00 | 0.00 | 0.00 | 99 | 1017.0 |
| 20260905110134 | 66 | 203 | 0.0 | 0.0 | 0.00 | 0.00 | 0.00 | 99 | 1017.1 |
| 20260905105629 | 66 | 203 | 0.0 | 0.0 | 0.00 | 0.00 | 0.00 | 99 | 1017.3 |
| 20260905105128 | 66 | 198 | 0.0 | 0.0 | 0.00 | 0.00 | 0.00 | 99 | 1017.2 |
| 20260905104623 | 66 | 193 | 0.0 | 0.0 | 0.00 | 0.00 | 0.00 | 99 | 1017.2 |
| 20260905104119 | 66 | 189 | 0.0 | 0.0 | 0.00 | 0.00 | 0.00 | 99 | 1017.4 |
| 20260905103614 | 66 | 191 | 0.0 | 0.0 | 0.00 | 0.00 | 0.00 | 99 | 1017.2 |
| 20260905103110 | 66 | 191 | 0.0 | 0.0 | 0.00 | 0.00 | 0.00 | 99 | 1017.0 |
| 20260905102605 | 66 | 189 | 0.0 | 0.0 | 0.00 | 0.00 | 0.00 | 99 | 1016.9 |